YAOGAN-6

Last updated on Wed Jun 18 2025 00:02:27 GMT+0000 (Coordinated Universal Time)

1 34839U 09021A 25168.22293757 .17838157 25147-5 10000-3 0 9996 2 34839 97.1678 151.1992 0011592 251.8613 231.0861 16.54800084900690

Satellite not in orbit